Simultaneous Nadir Overpasses (SNOs) Predictions

Prediction of SNOs between NOAA-19 and NPP Satellite Orbit:

Table of predicted SNOs for the next 14.0 days since TLE Epoch: 7/14/2017
Index Date (NOAA-19) Time (NOAA-19) Lat,Lon (NOAA-19) SZA (NOAA-19 ) Date (NPP) Time (NPP) Lat,Lon (NPP) SZA (NPP ) Distance(km) Time Diff (sec)
1 07/17/2017 05:18:59 -80.82,-129.48 116.74 07/17/2017 05:20:11 -80.81,-129.64 116.76 2.87 72
2 07/17/2017 06:10:05 80.82, 37.74 63.27 07/17/2017 06:10:56 80.81, 37.66 63.25 1.56 51
3 07/17/2017 07:01:01 -80.81,-155.15 116.71 07/17/2017 07:01:41 -80.81,-155.06 116.74 1.66 40
4 07/17/2017 07:52:07 80.81, 12.07 63.30 07/17/2017 07:52:26 80.81, 12.24 63.27 2.97 19
5 07/17/2017 08:43:02 -80.82, 179.55 116.72 07/17/2017 08:43:11 -80.82, 179.53 116.72 0.39 9
6 07/17/2017 09:34:08 80.82, -13.23 63.29 07/17/2017 09:33:56 80.82, -13.18 63.29 0.92 12
7 07/17/2017 10:25:03 -80.82, 154.25 116.73 07/17/2017 10:24:41 -80.82, 154.11 116.70 2.42 22
8 07/17/2017 11:16:09 80.82, -38.53 63.28 07/17/2017 11:15:26 80.82, -38.59 63.31 1.19 43
9 07/17/2017 12:07:05 -80.82, 128.58 116.70 07/17/2017 12:06:11 -80.82, 128.70 116.68 2.12 54




NCC Satellite Simultaneous Nadir Overpasses (SNOs) Prediction Service
